CFG1597 LGKR-EDDM

Flight info

Callsign CFG1597
Flight time N/A
Altitude 34000
Route OLGAT DCT ABADI DCT CRAYE DCT GISAM DCT ORAKA DCT SPL DCT ALIVO DCT PENEP DCT RASTA DCT REDBU Q112 NAPSA NAPSA1B
Aircraft A320/M-SDFGHIJ1RWY/LB1

Departure

Time 2026-05-06 17:25
Airport Corfu Ioannis Kapodistrias International Airport (LGKR)

Arrival

Time N/A
Airport Munich Airport (EDDM)
Time Latitude Longitude Altitude Speed Heading
2026-05-06 16:55 39.60837 19.91319 19 ft 0 kts 79°
2026-05-06 17:17 39.60834 19.91303 19 ft 2 kts 79°
2026-05-06 17:17 39.60831 19.91284 19 ft 2 kts 79°
2026-05-06 17:17 39.60829 19.91267 18 ft 0 kts 79°
2026-05-06 17:17 39.60825 19.91253 19 ft 2 kts 46°
2026-05-06 17:18 39.60812 19.91243 18 ft 2 kts
2026-05-06 17:18 39.60805 19.91244 19 ft 1 kts 342°
2026-05-06 17:18 39.60800 19.91246 19 ft 0 kts 349°
2026-05-06 17:21 39.60801 19.91246 18 ft 0 kts 349°
2026-05-06 17:22 39.60811 19.91243 18 ft 2 kts 349°
2026-05-06 17:22 39.60837 19.91236 19 ft 4 kts 349°
2026-05-06 17:22 39.60875 19.91218 19 ft 6 kts 320°
2026-05-06 17:22 39.60910 19.91165 19 ft 8 kts 324°
2026-05-06 17:23 39.60977 19.91142 19 ft 11 kts 348°
2026-05-06 17:23 39.61059 19.91120 19 ft 12 kts 349°
2026-05-06 17:23 39.61150 19.91098 18 ft 13 kts 349°
2026-05-06 17:23 39.61222 19.91026 18 ft 14 kts 300°
2026-05-06 17:24 39.61235 19.90945 18 ft 7 kts 210°
2026-05-06 17:24 39.61200 19.90951 18 ft 4 kts 166°
2026-05-06 17:24 39.61064 19.90988 18 ft 52 kts 168°
2026-05-06 17:24 39.60450 19.91147 15 ft 122 kts 168°
2026-05-06 17:25 39.59467 19.91403 210 ft 155 kts 169°
2026-05-06 17:25 39.58408 19.91683 834 ft 156 kts 162°
2026-05-06 17:25 39.57645 19.92625 1375 ft 160 kts 109°
2026-05-06 17:25 39.57626 19.94104 1749 ft 172 kts 72°
2026-05-06 17:26 39.58309 19.95368 2184 ft 178 kts 37°
2026-05-06 17:26 39.59458 19.95954 2608 ft 185 kts 360°
2026-05-06 17:26 39.60700 19.95407 2959 ft 196 kts 317°
2026-05-06 17:26 39.61373 19.93875 3343 ft 205 kts 277°
2026-05-06 17:27 39.61223 19.91995 3750 ft 217 kts 256°
2026-05-06 17:27 39.60763 19.90029 4225 ft 232 kts 249°
2026-05-06 17:27 39.60166 19.88011 4706 ft 247 kts 248°
2026-05-06 17:27 39.59546 19.85849 5372 ft 254 kts 249°
2026-05-06 17:28 39.58982 19.83734 6113 ft 257 kts 250°
2026-05-06 17:28 39.58424 19.81520 6869 ft 260 kts 251°
2026-05-06 17:28 39.57884 19.79310 7622 ft 263 kts 251°
2026-05-06 17:28 39.57335 19.77029 8377 ft 266 kts 252°
2026-05-06 17:29 39.56797 19.74775 9100 ft 269 kts 252°
2026-05-06 17:29 39.56244 19.72462 9836 ft 271 kts 252°
2026-05-06 17:29 39.55698 19.70150 10585 ft 272 kts 255°
2026-05-06 17:29 39.55553 19.67709 11326 ft 273 kts 279°
2026-05-06 17:30 39.56175 19.65421 12050 ft 275 kts 301°
2026-05-06 17:30 39.57535 19.63504 12426 ft 292 kts 321°
2026-05-06 17:30 39.59227 19.61897 12734 ft 308 kts 323°
2026-05-06 17:30 39.61002 19.60266 13016 ft 323 kts 323°
2026-05-06 17:31 39.62896 19.58520 13439 ft 333 kts 323°
2026-05-06 17:31 39.64803 19.56751 14064 ft 336 kts 322°
2026-05-06 17:31 39.66671 19.55008 14680 ft 337 kts 322°
2026-05-06 17:31 39.68615 19.53185 15274 ft 340 kts 322°
2026-05-06 17:32 39.70509 19.51405 15846 ft 342 kts 322°
2026-05-06 17:32 39.72433 19.49590 16403 ft 345 kts 322°
2026-05-06 17:32 39.74399 19.47732 16950 ft 347 kts 322°
2026-05-06 17:32 39.76224 19.46005 17443 ft 350 kts 322°
2026-05-06 17:33 39.78250 19.44090 17964 ft 352 kts 322°
2026-05-06 17:33 39.80206 19.42236 18465 ft 355 kts 322°
2026-05-06 17:33 39.82083 19.40459 18933 ft 356 kts 322°
2026-05-06 17:33 39.84115 19.38533 19418 ft 359 kts 322°
2026-05-06 17:34 39.86185 19.36570 19898 ft 361 kts 322°
2026-05-06 17:34 39.88259 19.34603 20377 ft 363 kts 321°
2026-05-06 17:34 39.90279 19.32684 20837 ft 365 kts 321°
2026-05-06 17:34 39.92388 19.30681 21290 ft 367 kts 321°
2026-05-06 17:35 39.94454 19.28717 21719 ft 370 kts 321°
2026-05-06 17:35 39.96547 19.26724 22150 ft 372 kts 321°
2026-05-06 17:35 39.98666 19.24706 22567 ft 374 kts 321°
2026-05-06 17:36 40.02895 19.20678 23393 ft 378 kts 320°
2026-05-06 17:36 40.05050 19.18620 23806 ft 379 kts 320°
2026-05-06 17:36 40.07204 19.16561 24190 ft 381 kts 320°
2026-05-06 17:36 40.09359 19.14499 24559 ft 383 kts 320°
2026-05-06 17:37 40.11532 19.12418 24909 ft 386 kts 320°
2026-05-06 17:37 40.13713 19.10328 25246 ft 388 kts 320°
2026-05-06 17:37 40.15928 19.08205 25581 ft 391 kts 320°
2026-05-06 17:37 40.18123 19.06099 25919 ft 392 kts 320°
2026-05-06 17:38 40.20347 19.03964 26248 ft 394 kts 320°
2026-05-06 17:38 40.22588 19.01836 26555 ft 397 kts 322°
2026-05-06 17:38 40.24906 18.99856 26854 ft 401 kts 325°
2026-05-06 17:38 40.27352 18.98018 27147 ft 404 kts 327°
2026-05-06 17:39 40.29888 18.96238 27447 ft 407 kts 328°
2026-05-06 17:39 40.32442 18.94462 27735 ft 409 kts 328°
2026-05-06 17:39 40.34977 18.92700 28011 ft 410 kts 328°
2026-05-06 17:39 40.37506 18.90938 28280 ft 412 kts 328°
2026-05-06 17:40 40.40008 18.89191 28541 ft 414 kts 328°
2026-05-06 17:40 40.42588 18.87390 28809 ft 415 kts 328°
2026-05-06 17:40 40.45174 18.85580 29070 ft 417 kts 328°
2026-05-06 17:40 40.47712 18.83802 29320 ft 418 kts 328°
2026-05-06 17:41 40.50313 18.81977 29566 ft 420 kts 328°
2026-05-06 17:41 40.52875 18.80177 29798 ft 421 kts 328°
2026-05-06 17:41 40.55423 18.78385 30017 ft 423 kts 328°
2026-05-06 17:41 40.57943 18.76613 30227 ft 424 kts 328°
2026-05-06 17:42 40.60639 18.74714 30457 ft 425 kts 328°
2026-05-06 17:42 40.63254 18.72871 30667 ft 427 kts 328°
2026-05-06 17:42 40.65879 18.71020 30870 ft 428 kts 328°
2026-05-06 17:42 40.68530 18.69149 31075 ft 429 kts 328°
2026-05-06 17:43 40.71104 18.67329 31259 ft 430 kts 328°
2026-05-06 17:43 40.73809 18.65417 31442 ft 431 kts 328°
2026-05-06 17:43 40.76472 18.63545 31628 ft 432 kts 328°
2026-05-06 17:43 40.79116 18.61744 31860 ft 432 kts 329°
2026-05-06 17:44 40.81799 18.59935 32106 ft 431 kts 329°
2026-05-06 17:44 40.84470 18.58133 32335 ft 430 kts 329°
2026-05-06 17:44 40.87136 18.56330 32517 ft 431 kts 329°
2026-05-06 17:44 40.89812 18.54515 32675 ft 432 kts 329°
2026-05-06 17:45 40.92483 18.52701 32838 ft 432 kts 329°
2026-05-06 17:45 40.95159 18.50880 33000 ft 433 kts 329°
2026-05-06 17:45 40.97854 18.49044 33152 ft 433 kts 329°
2026-05-06 17:45 41.00518 18.47226 33294 ft 434 kts 329°
2026-05-06 17:46 41.03236 18.45369 33435 ft 434 kts 329°
2026-05-06 17:46 41.05928 18.43531 33579 ft 435 kts 329°
2026-05-06 17:46 41.08612 18.41694 33716 ft 435 kts 329°
2026-05-06 17:46 41.11308 18.39847 33841 ft 435 kts 329°
2026-05-06 17:47 41.13987 18.38010 33961 ft 436 kts 328°
2026-05-06 17:47 41.16689 18.36158 34030 ft 436 kts 328°
2026-05-06 17:47 41.22121 18.32424 34036 ft 436 kts 328°
2026-05-06 17:48 41.27498 18.28723 34037 ft 436 kts 328°
2026-05-06 17:48 41.32890 18.25003 34037 ft 435 kts 328°
2026-05-06 17:49 41.38239 18.21305 34037 ft 435 kts 328°
2026-05-06 17:49 41.43623 18.17577 34037 ft 435 kts 328°
2026-05-06 17:50 41.48965 18.13836 34037 ft 434 kts 326°
2026-05-06 17:50 41.54117 18.09582 34038 ft 431 kts 322°
2026-05-06 17:51 41.59119 18.05148 34037 ft 431 kts 322°
2026-05-06 17:51 41.64098 18.00720 34037 ft 430 kts 322°
2026-05-06 17:52 41.69071 17.96294 34036 ft 430 kts 321°
2026-05-06 17:52 41.74064 17.91841 34034 ft 430 kts 321°
2026-05-06 17:53 41.79008 17.87424 34030 ft 430 kts 322°
2026-05-06 17:53 41.83982 17.82972 34025 ft 429 kts 322°
2026-05-06 17:54 41.88965 17.78506 34019 ft 430 kts 321°
2026-05-06 17:54 41.93953 17.74041 34015 ft 430 kts 322°
2026-05-06 17:55 41.98908 17.69622 34014 ft 430 kts 322°
2026-05-06 17:55 42.03899 17.65161 34017 ft 430 kts 322°
2026-05-06 17:56 42.08727 17.60834 34024 ft 430 kts 322°
2026-05-06 17:56 42.13810 17.56269 34030 ft 430 kts 321°
2026-05-06 17:57 42.18836 17.51745 34034 ft 431 kts 321°
2026-05-06 17:57 42.23860 17.47213 34035 ft 431 kts 321°
2026-05-06 17:58 42.28840 17.42713 34036 ft 432 kts 321°
2026-05-06 17:58 42.33822 17.38201 34035 ft 432 kts 321°
2026-05-06 17:59 42.38800 17.33682 34037 ft 433 kts 321°
2026-05-06 17:59 42.43785 17.29150 34036 ft 433 kts 320°
2026-05-06 18:00 42.48777 17.24601 34035 ft 433 kts 320°
2026-05-06 18:00 42.53761 17.20052 34035 ft 434 kts 320°
2026-05-06 18:01 42.58763 17.15473 34035 ft 434 kts 320°
2026-05-06 18:01 42.63735 17.10908 34036 ft 434 kts 320°
2026-05-06 18:02 42.68755 17.06289 34035 ft 435 kts 320°
2026-05-06 18:02 42.73743 17.01688 34036 ft 435 kts 320°
2026-05-06 18:03 42.78770 16.97045 34035 ft 435 kts 320°
2026-05-06 18:03 42.83762 16.92421 34035 ft 435 kts 320°
2026-05-06 18:04 42.88748 16.87797 34035 ft 436 kts 320°
2026-05-06 18:04 42.93776 16.83123 34035 ft 436 kts 320°
2026-05-06 18:05 42.98735 16.78504 34035 ft 436 kts 319°
2026-05-06 18:05 43.03651 16.73915 34035 ft 436 kts 319°
2026-05-06 18:06 43.08682 16.69212 34034 ft 436 kts 319°
2026-05-06 18:06 43.13671 16.64537 34031 ft 436 kts 319°
2026-05-06 18:07 43.18657 16.59856 34025 ft 436 kts 319°
2026-05-06 18:07 43.23659 16.55150 34018 ft 437 kts 319°
2026-05-06 18:08 43.28655 16.50440 34013 ft 436 kts 319°
2026-05-06 18:08 43.33649 16.45721 34010 ft 436 kts 319°
2026-05-06 18:09 43.38648 16.40988 34009 ft 437 kts 319°
2026-05-06 18:09 43.43658 16.36233 34009 ft 437 kts 319°
2026-05-06 18:10 43.48669 16.31529 34009 ft 438 kts 320°
2026-05-06 18:10 43.53965 16.27307 34010 ft 443 kts 323°
2026-05-06 18:11 43.58476 16.23952 34009 ft 443 kts 323°
2026-05-06 18:11 43.64798 16.19249 34009 ft 442 kts 323°
2026-05-06 18:12 43.70183 16.15227 34008 ft 442 kts 323°
2026-05-06 18:12 43.75632 16.11145 34006 ft 443 kts 323°
2026-05-06 18:13 43.81038 16.07086 34000 ft 443 kts 323°
2026-05-06 18:13 43.86433 16.03030 33993 ft 442 kts 323°
2026-05-06 18:14 43.91853 15.98945 33987 ft 442 kts 323°
2026-05-06 18:14 43.97259 15.94861 33984 ft 442 kts 323°
2026-05-06 18:15 44.02674 15.90762 33979 ft 443 kts 323°
2026-05-06 18:15 44.08153 15.86598 33978 ft 453 kts 323°
2026-05-06 18:16 44.13699 15.82378 33982 ft 460 kts 323°
2026-05-06 18:16 44.19307 15.78113 33983 ft 461 kts 324°
2026-05-06 18:17 44.24903 15.73844 33983 ft 461 kts 324°
2026-05-06 18:17 44.30325 15.69699 33983 ft 460 kts 324°
2026-05-06 18:18 44.36068 15.65297 33982 ft 460 kts 324°
2026-05-06 18:18 44.41678 15.60985 33978 ft 460 kts 324°
2026-05-06 18:19 44.47300 15.56655 33971 ft 460 kts 324°
2026-05-06 18:19 44.52898 15.52335 33963 ft 459 kts 324°
2026-05-06 18:20 44.58481 15.48018 33958 ft 459 kts 324°
2026-05-06 18:20 44.64040 15.43708 33955 ft 459 kts 325°
2026-05-06 18:21 44.69607 15.39383 33955 ft 459 kts 325°
2026-05-06 18:21 44.75193 15.35032 33954 ft 458 kts 325°
2026-05-06 18:22 44.80722 15.30715 33955 ft 458 kts 324°
2026-05-06 18:22 44.86270 15.26374 33955 ft 458 kts 324°
2026-05-06 18:23 44.91788 15.22048 33955 ft 458 kts 324°
2026-05-06 18:23 44.97358 15.17672 33955 ft 458 kts 325°
2026-05-06 18:24 45.02874 15.13329 33951 ft 457 kts 325°
2026-05-06 18:24 45.08424 15.08949 33940 ft 457 kts 325°
2026-05-06 18:25 45.13994 15.04545 33926 ft 457 kts 325°
2026-05-06 18:25 45.19551 15.00139 33917 ft 457 kts 325°
2026-05-06 18:26 45.25089 14.95740 33915 ft 458 kts 325°
2026-05-06 18:26 45.30629 14.91327 33916 ft 458 kts 325°
2026-05-06 18:27 45.36168 14.86908 33920 ft 458 kts 325°
2026-05-06 18:27 45.41733 14.82456 33923 ft 458 kts 325°
2026-05-06 18:28 45.47273 14.78011 33925 ft 458 kts 325°
2026-05-06 18:28 45.52815 14.73615 33923 ft 460 kts 327°
2026-05-06 18:29 45.58548 14.69479 33917 ft 461 kts 328°
2026-05-06 18:29 45.64286 14.65393 33909 ft 462 kts 328°
2026-05-06 18:30 45.70012 14.61294 33903 ft 462 kts 328°
2026-05-06 18:30 45.75768 14.57154 33901 ft 462 kts 328°
2026-05-06 18:31 45.81503 14.53019 33899 ft 463 kts 328°
2026-05-06 18:31 45.87230 14.48881 33899 ft 463 kts 328°
2026-05-06 18:32 45.92928 14.44753 33899 ft 463 kts 328°
2026-05-06 18:32 45.98631 14.40611 33899 ft 464 kts 328°
2026-05-06 18:33 46.04358 14.36441 33899 ft 464 kts 328°
2026-05-06 18:33 46.10059 14.32280 33900 ft 464 kts 328°
2026-05-06 18:34 46.15851 14.28213 33897 ft 466 kts 330°
2026-05-06 18:34 46.21709 14.24374 33892 ft 466 kts 330°
2026-05-06 18:35 46.27600 14.20517 33884 ft 466 kts 330°
2026-05-06 18:35 46.33402 14.16700 33878 ft 466 kts 330°
2026-05-06 18:36 46.39246 14.12839 33875 ft 466 kts 330°
2026-05-06 18:36 46.45145 14.08931 33874 ft 466 kts 330°
2026-05-06 18:37 46.50028 14.05689 33873 ft 466 kts 330°
2026-05-06 18:37 46.56811 14.01175 33873 ft 466 kts 330°
2026-05-06 18:38 46.62693 13.97254 33873 ft 467 kts 329°
2026-05-06 18:38 46.68556 13.93331 33873 ft 468 kts 329°
2026-05-06 18:39 46.74457 13.89374 33873 ft 469 kts 329°
2026-05-06 18:40 46.83300 13.83427 33867 ft 469 kts 329°
2026-05-06 18:40 46.86221 13.81457 33682 ft 469 kts 329°
2026-05-06 18:40 46.89166 13.79472 33431 ft 467 kts 329°
2026-05-06 18:40 46.90648 13.78472 33305 ft 466 kts 329°